Time,TemperatureF,DewpointF,PressureIn,WindDirection,WindDirectionDegrees,WindSpeedMPH,WindSpeedGustMPH,Humidity,HourlyPrecipIn,Conditions,Clouds,dailyrainin,SolarRadiationWatts/m^2,SoftwareType,DateUTC
2013-03-07 00:01:00,11.5,-99.9,30.24,SSE,163,3.0,7.1,91,0.00,,,0.00,0,,2013-03-07 06:01:00,
2013-03-07 00:11:00,12.1,-99.9,30.24,SSW,193,1.0,3.8,91,0.00,,,0.00,0,,2013-03-07 06:11:00,
2013-03-07 00:21:00,12.4,-99.9,30.24,SE,137,2.0,3.8,90,0.00,,,0.00,0,,2013-03-07 06:21:00,
2013-03-07 00:31:00,12.8,-99.9,30.24,SSE,147,2.0,5.4,90,0.00,,,0.00,0,,2013-03-07 06:31:00,
2013-03-07 00:41:00,13.2,-99.9,30.24,SSE,152,3.0,7.1,90,0.00,,,0.00,0,,2013-03-07 06:41:00,
2013-03-07 00:51:00,13.4,-99.9,30.24,ESE,103,3.0,5.4,90,0.00,,,0.00,0,,2013-03-07 06:51:00,
2013-03-07 01:01:00,13.6,-99.9,30.23,SE,143,6.0,8.8,90,0.00,,,0.00,0,,2013-03-07 07:01:00,
2013-03-07 01:11:00,13.6,-99.9,30.24,ESE,119,4.0,5.4,90,0.00,,,0.00,0,,2013-03-07 07:11:00,
2013-03-07 01:21:00,13.3,-99.9,30.23,ENE,77,4.0,7.1,90,0.00,,,0.00,0,,2013-03-07 07:21:00,
2013-03-07 01:31:00,13.0,-99.9,30.22,East,85,4.0,5.4,90,0.00,,,0.00,0,,2013-03-07 07:31:00,
2013-03-07 01:41:00,13.0,-99.9,30.22,South,172,3.0,5.4,90,0.00,,,0.00,0,,2013-03-07 07:41:00,
2013-03-07 01:51:00,13.2,-99.9,30.23,SSE,158,5.0,7.1,90,0.00,,,0.00,0,,2013-03-07 07:51:00,
2013-03-07 02:01:00,13.1,-99.9,30.23,South,187,3.0,5.4,89,0.00,,,0.00,0,,2013-03-07 08:01:00,
2013-03-07 02:11:00,13.0,-99.9,30.22,East,97,0.0,2.1,90,0.00,,,0.00,0,,2013-03-07 08:11:00,
2013-03-07 02:21:00,13.0,-99.9,30.22,SSE,166,4.0,10.5,90,0.00,,,0.00,0,,2013-03-07 08:21:00,
2013-03-07 02:31:00,13.1,-99.9,30.22,South,179,4.0,7.1,90,0.00,,,0.00,0,,2013-03-07 08:31:00,
2013-03-07 02:41:00,12.8,-99.9,30.21,East,93,5.0,10.5,90,0.00,,,0.00,0,,2013-03-07 08:41:00,
2013-03-07 02:51:00,12.6,-99.9,30.21,SE,144,6.0,12.1,90,0.00,,,0.00,0,,2013-03-07 08:51:00,
2013-03-07 03:01:00,12.4,-99.9,30.20,SSE,152,8.0,12.1,91,0.00,,,0.00,0,,2013-03-07 09:01:00,
2013-03-07 03:11:00,12.4,-99.9,30.20,SE,137,7.0,12.1,91,0.00,,,0.00,0,,2013-03-07 09:11:00,
2013-03-07 03:31:00,12.5,-99.9,30.19,ENE,77,8.0,12.1,91,0.00,,,0.00,0,,2013-03-07 09:31:00,
2013-03-07 03:41:00,12.5,-99.9,30.18,SSE,154,6.0,10.5,91,0.00,,,0.00,0,,2013-03-07 09:41:00,
2013-03-07 03:51:00,12.6,-99.9,30.18,SE,131,9.0,15.5,91,0.00,,,0.00,0,,2013-03-07 09:51:00,
2013-03-07 04:01:00,12.6,-99.9,30.18,SE,130,5.0,8.8,91,0.00,,,0.00,0,,2013-03-07 10:01:00,
2013-03-07 04:11:00,12.8,-99.9,30.18,SE,140,5.0,7.1,91,0.00,,,0.00,0,,2013-03-07 10:11:00,
2013-03-07 04:21:00,12.9,-99.9,30.18,SSE,164,5.0,8.8,91,0.00,,,0.00,0,,2013-03-07 10:21:00,
2013-03-07 04:41:00,13.3,-99.9,30.17,ESE,118,5.0,7.1,91,0.00,,,0.00,0,,2013-03-07 10:41:00,
2013-03-07 04:51:00,13.3,-99.9,30.17,SE,135,4.0,7.1,91,0.00,,,0.00,0,,2013-03-07 10:51:00,
2013-03-07 05:01:00,13.4,-99.9,30.17,ESE,102,3.0,7.1,91,0.00,,,0.00,0,,2013-03-07 11:01:00,
2013-03-07 05:11:00,13.6,-99.9,30.17,ESE,110,4.0,5.4,91,0.00,,,0.00,0,,2013-03-07 11:11:00,
2013-03-07 05:21:00,14.0,-99.9,30.17,East,94,6.0,12.1,91,0.00,,,0.00,0,,2013-03-07 11:21:00,
2013-03-07 05:31:00,14.2,-99.9,30.17,SE,127,9.0,13.8,91,0.00,,,0.00,0,,2013-03-07 11:31:00,
2013-03-07 05:41:00,14.2,-99.9,30.16,ENE,63,6.0,12.1,91,0.00,,,0.00,0,,2013-03-07 11:41:00,
2013-03-07 05:51:00,14.1,-99.9,30.16,SE,140,4.0,7.1,91,0.00,,,0.00,0,,2013-03-07 11:51:00,
2013-03-07 06:01:00,14.2,-99.9,30.16,SE,125,4.0,7.1,91,0.00,,,0.00,0,,2013-03-07 12:01:00,
2013-03-07 06:11:00,14.5,-99.9,30.17,East,91,4.0,7.1,91,0.00,,,0.00,0,,2013-03-07 12:11:00,
2013-03-07 06:21:00,14.4,-99.9,30.17,SE,135,5.0,10.5,90,0.00,,,0.00,0,,2013-03-07 12:21:00,
2013-03-07 06:31:00,14.4,-99.9,30.17,SE,126,3.0,5.4,90,0.00,,,0.00,0,,2013-03-07 12:31:00,
2013-03-07 06:41:00,14.6,-99.9,30.17,East,99,4.0,8.8,90,0.00,,,0.00,0.325,,2013-03-07 12:41:00,
2013-03-07 06:51:00,14.9,-99.9,30.17,East,87,4.0,7.1,91,0.00,,,0.00,1.095,,2013-03-07 12:51:00,
2013-03-07 07:01:00,15.0,-99.9,30.17,SE,124,3.0,8.8,90,0.00,,,0.00,2.441,,2013-03-07 13:01:00,
2013-03-07 07:11:00,15.1,-99.9,30.17,ESE,119,4.0,7.1,91,0.00,,,0.00,4.889,,2013-03-07 13:11:00,
2013-03-07 07:21:00,15.4,-99.9,30.18,SE,138,4.0,8.8,90,0.00,,,0.00,12.02,,2013-03-07 13:21:00,
2013-03-07 07:31:00,15.5,-99.9,30.18,SE,130,5.0,10.5,90,0.00,,,0.00,16.39,,2013-03-07 13:31:00,
2013-03-07 07:41:00,15.6,-99.9,30.18,East,92,4.0,7.1,90,0.00,,,0.00,27.42,,2013-03-07 13:41:00,
2013-03-07 07:51:00,15.7,-99.9,30.18,SE,128,8.0,13.8,90,0.00,,,0.00,54.41,,2013-03-07 13:51:00,
2013-03-07 08:01:00,15.9,-99.9,30.17,ESE,104,3.0,5.4,90,0.00,,,0.00,73.41,,2013-03-07 14:01:00,
2013-03-07 08:11:00,16.2,-99.9,30.17,East,85,5.0,8.8,90,0.00,,,0.00,91.7,,2013-03-07 14:11:00,
2013-03-07 08:21:00,16.2,-99.9,30.18,East,101,4.0,8.8,90,0.00,,,0.00,111.6,,2013-03-07 14:21:00,
2013-03-07 08:31:00,16.5,-99.9,30.17,ESE,118,5.0,7.1,89,0.00,,,0.00,138.3,,2013-03-07 14:31:00,
2013-03-07 08:41:00,16.9,-99.9,30.17,SSE,167,7.0,13.8,89,0.00,,,0.00,160.4,,2013-03-07 14:41:00,
2013-03-07 08:51:00,16.7,-99.9,30.17,SSE,157,7.0,10.5,88,0.00,,,0.00,152.4,,2013-03-07 14:51:00,
2013-03-07 09:01:00,16.8,-99.9,30.17,ESE,111,3.0,5.4,89,0.00,,,0.00,140.7,,2013-03-07 15:01:00,
2013-03-07 09:11:00,17.3,-99.9,30.16,ESE,114,5.0,12.1,88,0.00,,,0.00,172.9,,2013-03-07 15:11:00,
2013-03-07 09:21:00,17.6,-99.9,30.17,South,169,5.0,7.1,88,0.00,,,0.00,168,,2013-03-07 15:21:00,
2013-03-07 09:31:00,17.6,-99.9,30.17,SE,135,6.0,8.8,88,0.00,,,0.00,237,,2013-03-07 15:31:00,
2013-03-07 09:41:00,17.9,-99.9,30.16,SSW,194,5.0,10.5,87,0.00,,,0.00,298.4,,2013-03-07 15:41:00,
2013-03-07 09:51:00,19.7,-99.9,30.16,SSE,156,6.0,12.1,84,0.00,,,0.00,445.4,,2013-03-07 15:51:00,
2013-03-07 10:01:00,19.2,-99.9,30.16,SSE,155,6.0,10.5,84,0.00,,,0.00,500.5,,2013-03-07 16:01:00,
2013-03-07 10:11:00,19.6,-99.9,30.16,SE,133,10.0,18.9,83,0.00,,,0.00,452.5,,2013-03-07 16:11:00,
2013-03-07 10:21:00,20.8,-99.9,30.16,NE,52,6.0,8.8,83,0.00,,,0.00,577.3,,2013-03-07 16:21:00,
2013-03-07 10:31:00,20.0,-99.9,30.16,SE,143,11.0,17.2,83,0.00,,,0.00,376.8,,2013-03-07 16:31:00,
2013-03-07 10:41:00,19.3,-99.9,30.16,East,88,7.0,10.5,85,0.00,,,0.00,358.6,,2013-03-07 16:41:00,
2013-03-07 10:51:00,19.2,-99.9,30.16,SE,138,8.0,13.8,85,0.00,,,0.00,372,,2013-03-07 16:51:00,
2013-03-07 11:01:00,19.2,-99.9,30.16,ESE,103,9.0,13.8,84,0.00,,,0.00,388.7,,2013-03-07 17:01:00,
2013-03-07 11:11:00,19.9,-99.9,30.16,SE,145,5.0,8.8,85,0.00,,,0.00,396.6,,2013-03-07 17:11:00,
2013-03-07 11:21:00,19.6,-99.9,30.16,SSE,155,8.0,13.8,84,0.00,,,0.00,445.5,,2013-03-07 17:21:00,
2013-03-07 11:31:00,19.1,-99.9,30.16,ENE,58,6.0,8.8,85,0.00,,,0.00,364.1,,2013-03-07 17:31:00,
2013-03-07 11:41:00,19.4,-99.9,30.15,SSE,156,5.0,7.1,85,0.00,,,0.00,414.7,,2013-03-07 17:41:00,
2013-03-07 11:51:00,20.2,-99.9,30.15,ESE,107,8.0,15.5,83,0.00,,,0.00,460.9,,2013-03-07 17:51:00,
2013-03-07 12:01:00,19.9,-99.9,30.15,East,82,9.0,13.8,84,0.00,,,0.00,588.8,,2013-03-07 18:01:00,
2013-03-07 12:11:00,21.5,-99.9,30.15,ESE,106,5.0,8.8,83,0.00,,,0.00,596.5,,2013-03-07 18:11:00,
2013-03-07 12:21:00,20.9,-99.9,30.15,South,175,7.0,12.1,82,0.00,,,0.00,572.4,,2013-03-07 18:21:00,
2013-03-07 12:31:00,21.7,-99.9,30.16,ENE,59,5.0,7.1,82,0.00,,,0.00,476.2,,2013-03-07 18:31:00,
2013-03-07 12:41:00,21.2,-99.9,30.15,ENE,73,5.0,8.8,84,0.00,,,0.00,462.1,,2013-03-07 18:41:00,
2013-03-07 12:51:00,21.5,-99.9,30.14,East,86,7.0,12.1,83,0.00,,,0.00,495.4,,2013-03-07 18:51:00,
2013-03-07 13:01:00,21.7,-99.9,30.13,SE,134,8.0,13.8,82,0.00,,,0.00,472.4,,2013-03-07 19:01:00,
2013-03-07 13:11:00,21.5,-99.9,30.13,ESE,123,7.0,13.8,84,0.00,,,0.00,458.3,,2013-03-07 19:11:00,
2013-03-07 13:21:00,21.7,-99.9,30.13,East,99,8.0,12.1,83,0.00,,,0.00,444.6,,2013-03-07 19:21:00,
2013-03-07 13:31:00,23.2,-99.9,30.13,East,87,4.0,7.1,81,0.00,,,0.00,460.5,,2013-03-07 19:31:00,
2013-03-07 13:41:00,23.0,-99.9,30.13,ESE,116,5.0,12.1,82,0.00,,,0.00,485.7,,2013-03-07 19:41:00,
2013-03-07 13:51:00,23.5,-99.9,30.12,SE,126,8.0,13.8,81,0.00,,,0.00,514.4,,2013-03-07 19:51:00,
2013-03-07 14:01:00,22.8,-99.9,30.12,SSE,164,6.0,10.5,84,0.00,,,0.00,494.6,,2013-03-07 20:01:00,
2013-03-07 14:11:00,23.0,-99.9,30.12,South,181,7.0,12.1,83,0.00,,,0.00,445.4,,2013-03-07 20:11:00,
2013-03-07 14:21:00,22.8,-99.9,30.12,SE,145,7.0,10.5,84,0.00,,,0.00,329.4,,2013-03-07 20:21:00,
2013-03-07 14:31:00,23.7,-99.9,30.12,ESE,118,10.0,13.8,82,0.00,,,0.00,332.4,,2013-03-07 20:31:00,
2013-03-07 14:41:00,23.6,-99.9,30.12,SSE,157,9.0,13.8,83,0.00,,,0.00,345.6,,2013-03-07 20:41:00,
2013-03-07 14:51:00,24.3,-99.9,30.11,SSE,148,5.0,12.1,81,0.00,,,0.00,368.6,,2013-03-07 20:51:00,
2013-03-07 15:01:00,22.8,-99.9,30.11,East,99,4.0,7.1,85,0.00,,,0.00,266.5,,2013-03-07 21:01:00,
2013-03-07 15:11:00,23.3,-99.9,30.11,East,92,6.0,10.5,84,0.00,,,0.00,303.3,,2013-03-07 21:11:00,
2013-03-07 15:21:00,24.4,-99.9,30.11,SSE,166,5.0,8.8,82,0.00,,,0.00,337.9,,2013-03-07 21:21:00,
2013-03-07 15:31:00,25.9,-99.9,30.13,SE,139,4.0,8.8,79,0.00,,,0.00,418.5,,2013-03-07 21:31:00,
2013-03-07 15:41:00,25.2,-99.9,30.13,ESE,117,4.0,7.1,80,0.00,,,0.00,289.7,,2013-03-07 21:41:00,
2013-03-07 15:51:00,24.0,-99.9,30.13,SE,135,7.0,12.1,82,0.00,,,0.00,258.7,,2013-03-07 21:51:00,
2013-03-07 16:01:00,24.5,-99.9,30.12,South,178,8.0,13.8,82,0.00,,,0.00,285.1,,2013-03-07 22:01:00,
2013-03-07 16:11:00,24.1,-99.9,30.12,SE,135,9.0,13.8,82,0.00,,,0.00,199.7,,2013-03-07 22:11:00,
2013-03-07 16:21:00,23.5,-99.9,30.12,ESE,121,8.0,12.1,84,0.00,,,0.00,129.4,,2013-03-07 22:21:00,
2013-03-07 16:31:00,23.3,-99.9,30.12,SSE,150,5.0,8.8,84,0.00,,,0.00,124.8,,2013-03-07 22:31:00,
2013-03-07 16:41:00,23.1,-99.9,30.13,SSE,164,6.0,12.1,85,0.00,,,0.00,107.5,,2013-03-07 22:41:00,
2013-03-07 16:51:00,23.2,-99.9,30.13,South,180,5.0,8.8,85,0.00,,,0.00,107.8,,2013-03-07 22:51:00,
2013-03-07 17:01:00,23.1,-99.9,30.13,SE,135,7.0,10.5,85,0.00,,,0.00,78.14,,2013-03-07 23:01:00,
2013-03-07 17:11:00,23.0,-99.9,30.13,SSE,158,6.0,12.1,86,0.00,,,0.00,61.1,,2013-03-07 23:11:00,
2013-03-07 17:21:00,23.0,-99.9,30.13,SSE,158,5.0,10.5,86,0.00,,,0.00,49.46,,2013-03-07 23:21:00,
2013-03-07 17:31:00,23.1,-99.9,30.13,SE,134,4.0,8.8,86,0.00,,,0.00,37.97,,2013-03-07 23:31:00,
2013-03-07 17:41:00,23.0,-99.9,30.14,SSE,158,7.0,10.5,86,0.00,,,0.00,32.82,,2013-03-07 23:41:00,
2013-03-07 17:51:00,22.9,-99.9,30.13,South,181,5.0,10.5,87,0.00,,,0.00,28.22,,2013-03-07 23:51:00,
2013-03-07 18:01:00,22.8,-99.9,30.13,SE,139,7.0,10.5,87,0.00,,,0.00,16.71,,2013-03-08 00:01:00,
2013-03-07 18:11:00,22.8,-99.9,30.13,SE,131,4.0,8.8,87,0.00,,,0.00,10.44,,2013-03-08 00:11:00,
2013-03-07 18:31:00,22.8,-99.9,30.14,SSE,168,5.0,8.8,88,0.00,,,0.00,2.08,,2013-03-08 00:31:00,
2013-03-07 18:41:00,22.8,-99.9,30.14,South,170,3.0,5.4,88,0.00,,,0.00,0.63,,2013-03-08 00:41:00,
2013-03-07 18:51:00,22.9,-99.9,30.14,South,169,4.0,8.8,88,0.00,,,0.00,0.393,,2013-03-08 00:51:00,
2013-03-07 19:01:00,23.0,-99.9,30.14,SSE,153,6.0,8.8,88,0.00,,,0.00,0.217,,2013-03-08 01:01:00,
2013-03-07 19:11:00,22.8,-99.9,30.14,East,101,5.0,10.5,88,0.00,,,0.00,0.203,,2013-03-08 01:11:00,
2013-03-07 19:21:00,22.8,-99.9,30.14,SE,133,6.0,8.8,88,0.00,,,0.00,0.247,,2013-03-08 01:21:00,
2013-03-07 19:31:00,22.8,-99.9,30.14,SE,129,4.0,5.4,88,0.00,,,0.00,0.274,,2013-03-08 01:31:00,
2013-03-07 19:41:00,22.8,-99.9,30.14,South,173,4.0,8.8,88,0.00,,,0.00,0.21,,2013-03-08 01:41:00,
2013-03-07 19:51:00,22.8,-99.9,30.14,SE,129,3.0,5.4,88,0.00,,,0.00,0.203,,2013-03-08 01:51:00,
2013-03-07 20:01:00,22.8,-99.9,30.14,SE,127,4.0,8.8,88,0.00,,,0.00,0.207,,2013-03-08 02:01:00,
2013-03-07 20:11:00,22.8,-99.9,30.15,SSE,152,5.0,8.8,88,0.00,,,0.00,0.203,,2013-03-08 02:11:00,
2013-03-07 20:21:00,22.8,-99.9,30.15,SE,130,4.0,5.4,87,0.00,,,0.00,0.203,,2013-03-08 02:21:00,
2013-03-07 20:31:00,22.9,-99.9,30.14,SSE,149,4.0,7.1,87,0.00,,,0.00,0.203,,2013-03-08 02:31:00,
2013-03-07 20:41:00,22.9,-99.9,30.15,ESE,102,4.0,7.1,87,0.00,,,0.00,0.203,,2013-03-08 02:41:00,
2013-03-07 20:51:00,22.7,-99.9,30.15,ESE,105,6.0,8.8,87,0.00,,,0.00,0.203,,2013-03-08 02:51:00,
2013-03-07 21:01:00,22.7,-99.9,30.15,SSE,155,3.0,5.4,87,0.00,,,0.00,0.203,,2013-03-08 03:01:00,
2013-03-07 21:11:00,22.7,-99.9,30.15,ESE,120,5.0,7.1,87,0.00,,,0.00,0.203,,2013-03-08 03:11:00,
2013-03-07 21:21:00,22.7,-99.9,30.16,South,180,2.0,5.4,87,0.00,,,0.00,0.203,,2013-03-08 03:21:00,
2013-03-07 21:31:00,22.7,-99.9,30.16,SSE,150,4.0,5.4,87,0.00,,,0.00,0.203,,2013-03-08 03:31:00,
2013-03-07 21:41:00,22.7,-99.9,30.16,SE,128,4.0,7.1,87,0.00,,,0.00,0.203,,2013-03-08 03:41:00,
2013-03-07 21:51:00,22.8,-99.9,30.16,SE,142,1.0,3.8,87,0.00,,,0.00,0.203,,2013-03-08 03:51:00,
2013-03-07 22:01:00,22.7,-99.9,30.16,SE,124,1.0,3.8,87,0.00,,,0.00,0.203,,2013-03-08 04:01:00,
2013-03-07 22:11:00,22.7,-99.9,30.16,SSW,211,1.0,3.8,88,0.00,,,0.00,0.203,,2013-03-08 04:11:00,
2013-03-07 22:21:00,22.8,-99.9,30.16,South,176,0.0,0.0,88,0.00,,,0.00,0.203,,2013-03-08 04:21:00,
2013-03-07 22:31:00,22.8,-99.9,30.16,SSE,152,1.0,5.4,88,0.00,,,0.00,0.203,,2013-03-08 04:31:00,
2013-03-07 22:41:00,22.9,-99.9,30.16,South,176,2.0,3.8,88,0.00,,,0.00,0.203,,2013-03-08 04:41:00,
2013-03-07 22:51:00,22.9,-99.9,30.16,ESE,121,1.0,3.8,88,0.00,,,0.00,0.207,,2013-03-08 04:51:00,
2013-03-07 23:01:00,22.9,-99.9,30.16,SSE,154,1.0,3.8,88,0.00,,,0.00,0.203,,2013-03-08 05:01:00,
2013-03-07 23:11:00,23.0,-99.9,30.16,SE,143,0.0,3.8,88,0.00,,,0.00,0.21,,2013-03-08 05:11:00,
2013-03-07 23:21:00,23.1,-99.9,30.16,SSW,213,0.0,0.0,88,0.00,,,0.00,0.203,,2013-03-08 05:21:00,
2013-03-07 23:31:00,23.1,-99.9,30.16,South,177,0.0,0.0,88,0.00,,,0.00,0.203,,2013-03-08 05:31:00,
2013-03-07 23:41:00,23.2,-99.9,30.16,South,185,2.0,5.4,88,0.00,,,0.00,0.213,,2013-03-08 05:41:00,
2013-03-07 23:51:00,23.1,-99.9,30.16,SW,226,0.0,2.1,88,0.00,,,0.00,0.203,,2013-03-08 05:51:00,